DLH120 EDDF-EBBR

Flight info

Callsign DLH120
Flight time 1h 5m
Altitude 14000
Route SOBRA2L/18 SOBRA Y180 BITBU Y181 GOPAS N852 LNO
Aircraft DC6/M-SDE1FGHIRWXY/S

Departure

Time 2026-05-06 09:30
Airport Frankfurt Main Airport (EDDF)

Arrival

Time 2026-05-06 10:36
Airport Brussels Airport (EBBR)
Time Latitude Longitude Altitude Speed Heading
2026-05-06 08:53 50.04723 8.58102 361 ft 0 kts 160°
2026-05-06 09:19 50.04739 8.58095 364 ft 4 kts 171°
2026-05-06 09:20 50.04777 8.58089 363 ft 6 kts 180°
2026-05-06 09:20 50.04795 8.58091 364 ft 0 kts 191°
2026-05-06 09:20 50.04786 8.58088 362 ft 1 kts 196°
2026-05-06 09:21 50.04783 8.58085 362 ft 0 kts 229°
2026-05-06 09:22 50.04782 8.58083 362 ft 1 kts 231°
2026-05-06 09:22 50.04775 8.58048 358 ft 6 kts 261°
2026-05-06 09:22 50.04757 8.57969 364 ft 8 kts 227°
2026-05-06 09:22 50.04710 8.57885 357 ft 13 kts 236°
2026-05-06 09:23 50.04669 8.57733 362 ft 17 kts 250°
2026-05-06 09:23 50.04623 8.57549 363 ft 19 kts 249°
2026-05-06 09:23 50.04572 8.57339 358 ft 23 kts 250°
2026-05-06 09:23 50.04513 8.57090 363 ft 23 kts 249°
2026-05-06 09:24 50.04455 8.56845 366 ft 23 kts 250°
2026-05-06 09:24 50.04403 8.56634 359 ft 21 kts 249°
2026-05-06 09:24 50.04349 8.56395 359 ft 25 kts 250°
2026-05-06 09:24 50.04280 8.56125 360 ft 29 kts 248°
2026-05-06 09:25 50.04205 8.55815 355 ft 32 kts 253°
2026-05-06 09:25 50.04135 8.55507 357 ft 30 kts 250°
2026-05-06 09:25 50.04060 8.55189 356 ft 32 kts 251°
2026-05-06 09:25 50.03975 8.54854 358 ft 35 kts 250°
2026-05-06 09:26 50.03897 8.54511 352 ft 32 kts 250°
2026-05-06 09:26 50.03798 8.54216 356 ft 32 kts 246°
2026-05-06 09:26 50.03716 8.53875 352 ft 35 kts 250°
2026-05-06 09:26 50.03637 8.53552 341 ft 28 kts 247°
2026-05-06 09:27 50.03568 8.53265 338 ft 28 kts 249°
2026-05-06 09:27 50.03515 8.53047 336 ft 18 kts 249°
2026-05-06 09:27 50.03473 8.52879 335 ft 18 kts 248°
2026-05-06 09:27 50.03438 8.52745 333 ft 0 kts 247°
2026-05-06 09:28 50.03428 8.52709 332 ft 6 kts 247°
2026-05-06 09:28 50.03403 8.52623 333 ft 9 kts 232°
2026-05-06 09:28 50.03358 8.52595 335 ft 5 kts 176°
2026-05-06 09:29 50.03342 8.52596 335 ft 5 kts 176°
2026-05-06 09:29 50.03266 8.52597 333 ft 23 kts 180°
2026-05-06 09:29 50.02974 8.52598 335 ft 64 kts 179°
2026-05-06 09:29 50.02394 8.52602 335 ft 103 kts 180°
2026-05-06 09:30 50.01595 8.52635 426 ft 121 kts 181°
2026-05-06 09:30 50.00747 8.52633 716 ft 125 kts 185°
2026-05-06 09:30 49.99861 8.52593 1102 ft 127 kts 184°
2026-05-06 09:30 49.98997 8.52518 1449 ft 130 kts 188°
2026-05-06 09:31 49.98055 8.52367 1681 ft 137 kts 189°
2026-05-06 09:31 49.97106 8.52210 1996 ft 138 kts 189°
2026-05-06 09:31 49.96161 8.52107 2422 ft 131 kts 186°
2026-05-06 09:31 49.95261 8.52103 2776 ft 128 kts 183°
2026-05-06 09:32 49.94380 8.52104 3061 ft 128 kts 185°
2026-05-06 09:32 49.93477 8.52061 3279 ft 131 kts 187°
2026-05-06 09:32 49.92552 8.52024 3513 ft 136 kts 186°
2026-05-06 09:32 49.91594 8.52012 3830 ft 137 kts 185°
2026-05-06 09:33 49.90645 8.51988 4170 ft 137 kts 185°
2026-05-06 09:33 49.89693 8.51953 4479 ft 136 kts 185°
2026-05-06 09:33 49.88746 8.51921 4794 ft 136 kts 186°
2026-05-06 09:33 49.87806 8.51894 5098 ft 135 kts 185°
2026-05-06 09:34 49.86869 8.51870 5381 ft 134 kts 187°
2026-05-06 09:34 49.85952 8.51672 5673 ft 132 kts 197°
2026-05-06 09:34 49.85081 8.51243 5933 ft 130 kts 206°
2026-05-06 09:34 49.84262 8.50666 6205 ft 129 kts 206°
2026-05-06 09:35 49.83435 8.50132 6439 ft 129 kts 206°
2026-05-06 09:35 49.82615 8.49584 6676 ft 128 kts 206°
2026-05-06 09:35 49.81796 8.49040 6913 ft 128 kts 206°
2026-05-06 09:35 49.80982 8.48498 7149 ft 127 kts 206°
2026-05-06 09:36 49.80173 8.47954 7365 ft 126 kts 206°
2026-05-06 09:36 49.79416 8.47292 7541 ft 126 kts 221°
2026-05-06 09:36 49.78877 8.46260 7733 ft 126 kts 241°
2026-05-06 09:36 49.78631 8.44948 7928 ft 127 kts 262°
2026-05-06 09:37 49.78671 8.43587 8123 ft 126 kts 268°
2026-05-06 09:37 49.78667 8.42247 8338 ft 126 kts 266°
2026-05-06 09:37 49.78680 8.40870 8528 ft 127 kts 266°
2026-05-06 09:37 49.78693 8.39500 8719 ft 128 kts 266°
2026-05-06 09:38 49.78703 8.38127 8916 ft 127 kts 266°
2026-05-06 09:38 49.78718 8.36772 9103 ft 128 kts 267°
2026-05-06 09:38 49.78735 8.35400 9304 ft 128 kts 266°
2026-05-06 09:38 49.78756 8.34027 9488 ft 128 kts 266°
2026-05-06 09:39 49.78777 8.32651 9652 ft 128 kts 266°
2026-05-06 09:39 49.78799 8.31276 9816 ft 128 kts 265°
2026-05-06 09:39 49.78824 8.29904 9960 ft 128 kts 266°
2026-05-06 09:39 49.78845 8.28530 10100 ft 128 kts 266°
2026-05-06 09:40 49.78869 8.27158 10257 ft 128 kts 266°
2026-05-06 09:40 49.78893 8.25776 10445 ft 130 kts 266°
2026-05-06 09:40 49.78983 8.22934 10873 ft 135 kts 272°
2026-05-06 09:41 49.79149 8.21494 11093 ft 137 kts 277°
2026-05-06 09:41 49.79350 8.20048 11329 ft 137 kts 274°
2026-05-06 09:41 49.79537 8.18590 11555 ft 138 kts 276°
2026-05-06 09:41 49.79728 8.17135 11771 ft 138 kts 275°
2026-05-06 09:42 49.79918 8.15668 11974 ft 141 kts 275°
2026-05-06 09:42 49.80116 8.14143 12106 ft 148 kts 275°
2026-05-06 09:42 49.80316 8.12551 12299 ft 153 kts 275°
2026-05-06 09:42 49.80519 8.10924 12496 ft 155 kts 275°
2026-05-06 09:43 49.80723 8.09266 12717 ft 158 kts 275°
2026-05-06 09:43 49.80929 8.07590 12947 ft 159 kts 275°
2026-05-06 09:43 49.81135 8.05919 13180 ft 160 kts 275°
2026-05-06 09:43 49.81346 8.04219 13410 ft 161 kts 275°
2026-05-06 09:44 49.81555 8.02492 13620 ft 162 kts 275°
2026-05-06 09:44 49.81763 8.00801 13807 ft 162 kts 275°
2026-05-06 09:44 49.81973 7.99026 13815 ft 176 kts 275°
2026-05-06 09:44 49.82192 7.97103 13822 ft 188 kts 275°
2026-05-06 09:45 49.82418 7.95056 13820 ft 197 kts 275°
2026-05-06 09:45 49.82647 7.92940 13810 ft 202 kts 275°
2026-05-06 09:45 49.82876 7.90776 13807 ft 205 kts 275°
2026-05-06 09:45 49.83107 7.88578 13812 ft 208 kts 275°
2026-05-06 09:46 49.83357 7.86353 13808 ft 211 kts 276°
2026-05-06 09:46 49.83602 7.84098 13808 ft 214 kts 275°
2026-05-06 09:46 49.83848 7.81814 13807 ft 217 kts 277°
2026-05-06 09:46 49.84179 7.79509 13807 ft 221 kts 280°
2026-05-06 09:47 49.84609 7.77206 13808 ft 224 kts 284°
2026-05-06 09:47 49.85128 7.74912 13801 ft 227 kts 286°
2026-05-06 09:47 49.85650 7.72591 13809 ft 229 kts 285°
2026-05-06 09:47 49.86171 7.70249 13807 ft 231 kts 285°
2026-05-06 09:48 49.86693 7.67884 13809 ft 233 kts 285°
2026-05-06 09:48 49.87221 7.65496 13813 ft 234 kts 285°
2026-05-06 09:48 49.87747 7.63106 13811 ft 235 kts 285°
2026-05-06 09:48 49.88277 7.60707 13814 ft 235 kts 285°
2026-05-06 09:49 49.88805 7.58308 13814 ft 235 kts 285°
2026-05-06 09:49 49.89336 7.55898 13814 ft 236 kts 285°
2026-05-06 09:49 49.89865 7.53494 13818 ft 236 kts 285°
2026-05-06 09:49 49.90395 7.51081 13821 ft 236 kts 285°
2026-05-06 09:50 49.90926 7.48669 13822 ft 236 kts 285°
2026-05-06 09:50 49.91457 7.46251 13823 ft 237 kts 285°
2026-05-06 09:50 49.91806 7.44654 13824 ft 237 kts 285°
2026-05-06 09:50 49.92337 7.42235 13824 ft 237 kts 285°
2026-05-06 09:51 49.92866 7.39816 13829 ft 237 kts 285°
2026-05-06 09:51 49.93394 7.37397 13829 ft 237 kts 285°
2026-05-06 09:51 49.93924 7.34977 13827 ft 237 kts 285°
2026-05-06 09:51 49.94453 7.32552 13829 ft 236 kts 285°
2026-05-06 09:52 49.94980 7.30138 13833 ft 236 kts 285°
2026-05-06 09:52 49.95509 7.27717 13827 ft 237 kts 285°
2026-05-06 09:52 49.96035 7.25303 13825 ft 236 kts 285°
2026-05-06 09:52 49.96561 7.22880 13826 ft 236 kts 285°
2026-05-06 09:53 49.97087 7.20463 13831 ft 236 kts 285°
2026-05-06 09:53 49.97611 7.18051 13826 ft 236 kts 285°
2026-05-06 09:53 49.98083 7.15619 13824 ft 234 kts 281°
2026-05-06 09:53 49.98418 7.13149 13824 ft 233 kts 276°
2026-05-06 09:54 49.98612 7.10657 13822 ft 232 kts 271°
2026-05-06 09:54 49.98719 7.08158 13820 ft 232 kts 271°
2026-05-06 09:54 49.98837 7.05644 13824 ft 233 kts 271°
2026-05-06 09:54 49.98955 7.03136 13820 ft 233 kts 271°
2026-05-06 09:55 49.99069 7.00621 13819 ft 233 kts 271°
2026-05-06 09:55 49.99183 6.98109 13814 ft 233 kts 271°
2026-05-06 09:55 49.99293 6.95627 13805 ft 233 kts 271°
2026-05-06 09:55 49.99403 6.93112 13807 ft 234 kts 271°
2026-05-06 09:56 49.99514 6.90592 13808 ft 234 kts 271°
2026-05-06 09:56 49.99623 6.88073 13805 ft 234 kts 271°
2026-05-06 09:56 49.99732 6.85552 13811 ft 233 kts 271°
2026-05-06 09:56 49.99840 6.83042 13810 ft 233 kts 271°
2026-05-06 09:57 49.99947 6.80524 13811 ft 233 kts 271°
2026-05-06 09:57 50.00051 6.78019 13812 ft 232 kts 271°
2026-05-06 09:57 50.00156 6.75510 13811 ft 232 kts 271°
2026-05-06 09:57 50.00258 6.73013 13812 ft 232 kts 270°
2026-05-06 09:58 50.00272 6.70513 13807 ft 231 kts 266°
2026-05-06 09:58 50.00195 6.68020 13811 ft 231 kts 265°
2026-05-06 09:58 50.00120 6.65527 13812 ft 231 kts 265°
2026-05-06 09:58 50.00044 6.63041 13814 ft 231 kts 265°
2026-05-06 09:59 49.99967 6.60541 13811 ft 231 kts 265°
2026-05-06 09:59 49.99892 6.58043 13814 ft 231 kts 265°
2026-05-06 09:59 49.99815 6.55547 13809 ft 231 kts 265°
2026-05-06 09:59 49.99737 6.53056 13808 ft 231 kts 265°
2026-05-06 10:00 49.99657 6.50559 13809 ft 231 kts 265°
2026-05-06 10:00 49.99575 6.48067 13809 ft 232 kts 265°
2026-05-06 10:00 49.99491 6.45563 13811 ft 232 kts 265°
2026-05-06 10:00 49.99405 6.43057 13807 ft 232 kts 265°
2026-05-06 10:01 49.99321 6.40584 13815 ft 232 kts 265°
2026-05-06 10:01 49.99230 6.38074 13814 ft 233 kts 265°
2026-05-06 10:01 49.99140 6.35560 13814 ft 234 kts 265°
2026-05-06 10:01 49.99049 6.33037 13818 ft 234 kts 265°
2026-05-06 10:02 49.98954 6.30507 13815 ft 233 kts 265°
2026-05-06 10:02 49.98860 6.27997 13821 ft 232 kts 265°
2026-05-06 10:02 49.98765 6.25488 13828 ft 232 kts 265°
2026-05-06 10:02 49.98669 6.22982 13825 ft 232 kts 265°
2026-05-06 10:03 49.98571 6.20484 13826 ft 232 kts 264°
2026-05-06 10:03 49.98565 6.17979 13826 ft 232 kts 271°
2026-05-06 10:03 49.98696 6.15484 13825 ft 232 kts 274°
2026-05-06 10:03 49.98925 6.12997 13828 ft 232 kts 277°
2026-05-06 10:04 49.99250 6.10537 13829 ft 232 kts 281°
2026-05-06 10:04 49.99670 6.08110 13833 ft 233 kts 284°
2026-05-06 10:04 50.00211 6.05740 13837 ft 234 kts 291°
2026-05-06 10:04 50.00992 6.03517 13831 ft 236 kts 300°
2026-05-06 10:05 50.02047 6.01554 13823 ft 238 kts 313°
2026-05-06 10:05 50.03385 6.00019 13828 ft 241 kts 327°
2026-05-06 10:05 50.04933 5.99002 13827 ft 244 kts 341°
2026-05-06 10:05 50.06606 5.98538 13838 ft 244 kts 351°
2026-05-06 10:06 50.08282 5.98137 13823 ft 244 kts 346°
2026-05-06 10:06 50.09948 5.97521 13711 ft 248 kts 341°
2026-05-06 10:06 50.11596 5.96709 13562 ft 254 kts 339°
2026-05-06 10:06 50.13288 5.95864 13445 ft 258 kts 340°
2026-05-06 10:07 50.15014 5.95014 13410 ft 261 kts 340°
2026-05-06 10:07 50.16756 5.94148 13349 ft 264 kts 340°
2026-05-06 10:07 50.18510 5.93270 13253 ft 265 kts 340°
2026-05-06 10:07 50.20272 5.92386 13116 ft 267 kts 340°
2026-05-06 10:08 50.22004 5.91521 12948 ft 254 kts 340°
2026-05-06 10:08 50.23645 5.90702 12703 ft 242 kts 340°
2026-05-06 10:08 50.25224 5.89916 12430 ft 234 kts 340°
2026-05-06 10:08 50.26757 5.89152 12159 ft 229 kts 340°
2026-05-06 10:09 50.28264 5.88401 11891 ft 225 kts 340°
2026-05-06 10:09 50.29743 5.87664 11640 ft 223 kts 340°
2026-05-06 10:09 50.31213 5.86929 11372 ft 221 kts 340°
2026-05-06 10:09 50.32671 5.86198 11113 ft 218 kts 340°
2026-05-06 10:10 50.34093 5.85489 10925 ft 212 kts 340°
2026-05-06 10:10 50.35485 5.84793 10697 ft 208 kts 340°
2026-05-06 10:10 50.36860 5.84104 10468 ft 206 kts 340°
2026-05-06 10:10 50.38224 5.83423 10264 ft 205 kts 340°
2026-05-06 10:11 50.39577 5.82744 10031 ft 204 kts 340°
2026-05-06 10:11 50.40929 5.82066 9817 ft 203 kts 340°
2026-05-06 10:11 50.42277 5.81384 9613 ft 203 kts 340°
2026-05-06 10:11 50.43619 5.80707 9375 ft 203 kts 340°
2026-05-06 10:12 50.44961 5.80023 9139 ft 202 kts 340°
2026-05-06 10:12 50.46302 5.79341 8903 ft 202 kts 340°
2026-05-06 10:12 50.47637 5.78658 8683 ft 202 kts 340°
2026-05-06 10:12 50.48973 5.77970 8454 ft 202 kts 340°
2026-05-06 10:13 50.50297 5.77248 8240 ft 201 kts 337°
2026-05-06 10:13 50.51566 5.76353 8022 ft 200 kts 332°
2026-05-06 10:13 50.52775 5.75270 7819 ft 199 kts 326°
2026-05-06 10:13 50.53891 5.74036 7615 ft 199 kts 322°
2026-05-06 10:14 50.55004 5.72741 7416 ft 199 kts 323°
2026-05-06 10:14 50.56114 5.71452 7222 ft 199 kts 323°
2026-05-06 10:14 50.57225 5.70153 7037 ft 199 kts 323°
2026-05-06 10:14 50.58332 5.68847 6861 ft 198 kts 323°
2026-05-06 10:15 50.59395 5.67582 6887 ft 187 kts 322°
2026-05-06 10:15 50.60360 5.66271 6887 ft 181 kts 316°
2026-05-06 10:15 50.61217 5.64864 6886 ft 176 kts 313°
2026-05-06 10:15 50.62051 5.63485 6885 ft 171 kts 314°
2026-05-06 10:16 50.62862 5.62139 6896 ft 168 kts 314°
2026-05-06 10:16 50.63391 5.61256 6892 ft 166 kts 314°
2026-05-06 10:16 50.63569 5.60956 6894 ft 166 kts 314°
2026-05-06 10:16 50.64337 5.59663 6896 ft 163 kts 314°
2026-05-06 10:17 50.65107 5.58360 6895 ft 161 kts 314°
2026-05-06 10:17 50.65860 5.57077 6895 ft 159 kts 314°
2026-05-06 10:17 50.66603 5.55798 6893 ft 158 kts 314°
2026-05-06 10:17 50.67350 5.54518 6896 ft 159 kts 314°
2026-05-06 10:18 50.68111 5.53223 6901 ft 162 kts 314°
2026-05-06 10:18 50.68875 5.51906 6902 ft 162 kts 313°
2026-05-06 10:18 50.69624 5.50592 6904 ft 160 kts 314°
2026-05-06 10:18 50.70348 5.49317 6891 ft 157 kts 314°
2026-05-06 10:19 50.71071 5.48044 6896 ft 155 kts 314°
2026-05-06 10:19 50.71787 5.46773 6892 ft 154 kts 313°
2026-05-06 10:19 50.72442 5.45435 6904 ft 154 kts 306°
2026-05-06 10:19 50.73031 5.44036 6893 ft 152 kts 307°
2026-05-06 10:20 50.73621 5.42662 6892 ft 151 kts 307°
2026-05-06 10:20 50.74203 5.41293 6892 ft 150 kts 307°
2026-05-06 10:20 50.74780 5.39921 6901 ft 149 kts 306°
2026-05-06 10:20 50.75353 5.38560 6894 ft 149 kts 307°
2026-05-06 10:21 50.75931 5.37195 6897 ft 149 kts 307°
2026-05-06 10:21 50.76502 5.35837 6897 ft 148 kts 307°
2026-05-06 10:21 50.77068 5.34483 6897 ft 147 kts 307°
2026-05-06 10:21 50.77634 5.33123 6890 ft 148 kts 306°
2026-05-06 10:22 50.78196 5.31768 6895 ft 147 kts 307°
2026-05-06 10:22 50.78757 5.30408 6899 ft 148 kts 306°
2026-05-06 10:22 50.79320 5.29048 6905 ft 149 kts 307°
2026-05-06 10:22 50.79901 5.27658 6889 ft 154 kts 307°
2026-05-06 10:23 50.80492 5.26256 6914 ft 159 kts 307°
2026-05-06 10:23 50.81115 5.24738 6900 ft 166 kts 307°
2026-05-06 10:23 50.81752 5.23219 6905 ft 171 kts 307°
2026-05-06 10:23 50.82413 5.21615 6909 ft 179 kts 307°
2026-05-06 10:24 50.83121 5.19904 6733 ft 194 kts 306°
2026-05-06 10:24 50.83900 5.18076 6499 ft 207 kts 306°
2026-05-06 10:24 50.84730 5.16163 6210 ft 215 kts 307°
2026-05-06 10:24 50.85594 5.14183 5765 ft 220 kts 308°
2026-05-06 10:25 50.86496 5.12199 5278 ft 224 kts 308°
2026-05-06 10:25 50.87393 5.10166 4786 ft 226 kts 307°
2026-05-06 10:25 50.88301 5.08111 4268 ft 228 kts 308°
2026-05-06 10:25 50.89208 5.06055 3819 ft 226 kts 307°
2026-05-06 10:26 50.90096 5.04039 3533 ft 218 kts 308°
2026-05-06 10:26 50.90943 5.02109 3345 ft 210 kts 307°
2026-05-06 10:26 50.91761 5.00224 3154 ft 205 kts 307°
2026-05-06 10:26 50.92549 4.98391 3016 ft 191 kts 308°
2026-05-06 10:27 50.93245 4.96751 2925 ft 175 kts 307°
2026-05-06 10:27 50.93916 4.95156 2713 ft 167 kts 307°
2026-05-06 10:27 50.94509 4.93633 2477 ft 162 kts 302°
2026-05-06 10:27 50.95041 4.92080 2234 ft 159 kts 303°
2026-05-06 10:28 50.95574 4.90560 2002 ft 157 kts 301°
2026-05-06 10:28 50.95939 4.89021 2012 ft 143 kts 291°
2026-05-06 10:28 50.96092 4.87510 2017 ft 135 kts 278°
2026-05-06 10:28 50.96045 4.86037 2016 ft 133 kts 265°
2026-05-06 10:29 50.95806 4.84639 2024 ft 131 kts 253°
2026-05-06 10:29 50.95469 4.83308 2031 ft 128 kts 253°
2026-05-06 10:29 50.95154 4.81969 2027 ft 131 kts 255°
2026-05-06 10:29 50.94898 4.80601 2019 ft 127 kts 260°
2026-05-06 10:30 50.94660 4.79281 2022 ft 123 kts 259°
2026-05-06 10:30 50.94421 4.78015 2022 ft 116 kts 259°
2026-05-06 10:30 50.94259 4.76773 2032 ft 114 kts 267°
2026-05-06 10:30 50.94175 4.75541 2032 ft 111 kts 269°
2026-05-06 10:31 50.94067 4.74318 2033 ft 113 kts 268°
2026-05-06 10:31 50.93971 4.73098 2041 ft 111 kts 268°
2026-05-06 10:31 50.93865 4.71869 2049 ft 115 kts 268°
2026-05-06 10:31 50.93764 4.70583 2046 ft 119 kts 268°
2026-05-06 10:32 50.93665 4.69301 2039 ft 115 kts 268°
2026-05-06 10:32 50.93563 4.68058 2027 ft 112 kts 269°
2026-05-06 10:32 50.93417 4.66812 1913 ft 119 kts 259°
2026-05-06 10:32 50.93087 4.65600 1841 ft 121 kts 246°
2026-05-06 10:33 50.92698 4.64448 1839 ft 117 kts 246°
2026-05-06 10:33 50.92309 4.63304 1767 ft 119 kts 248°
2026-05-06 10:33 50.91993 4.62086 1640 ft 122 kts 257°
2026-05-06 10:33 50.91772 4.60822 1574 ft 120 kts 263°
2026-05-06 10:34 50.91531 4.59495 1403 ft 130 kts 254°
2026-05-06 10:34 50.91186 4.58134 1174 ft 130 kts 252°
2026-05-06 10:34 50.90868 4.56848 961 ft 121 kts 253°
2026-05-06 10:34 50.90591 4.55627 676 ft 117 kts 258°
2026-05-06 10:35 50.90363 4.54438 508 ft 107 kts 258°
2026-05-06 10:35 50.90123 4.53344 324 ft 102 kts 254°
2026-05-06 10:35 50.89889 4.52338 207 ft 93 kts 256°
2026-05-06 10:35 50.89704 4.51473 164 ft 72 kts 255°
2026-05-06 10:36 50.89552 4.50811 163 ft 52 kts 251°
2026-05-06 10:36 50.89495 4.50519 165 ft 23 kts 261°
2026-05-06 10:36 50.89496 4.50307 170 ft 15 kts 278°
2026-05-06 10:36 50.89509 4.50179 173 ft 9 kts 280°
2026-05-06 10:37 50.89517 4.50107 172 ft 0 kts 279°
2026-05-06 10:38 50.89518 4.50103 172 ft 1 kts 279°
2026-05-06 10:38 50.89528 4.50004 170 ft 13 kts 279°
2026-05-06 10:39 50.89525 4.49899 170 ft 16 kts 248°
2026-05-06 10:39 50.89480 4.49723 171 ft 20 kts 249°
2026-05-06 10:39 50.89427 4.49465 168 ft 29 kts 255°
2026-05-06 10:39 50.89338 4.49079 164 ft 18 kts 248°
2026-05-06 10:40 50.89312 4.48971 166 ft 11 kts 255°
2026-05-06 10:40 50.89289 4.48852 167 ft 13 kts 248°
2026-05-06 10:40 50.89291 4.48727 168 ft 10 kts 306°
2026-05-06 10:40 50.89358 4.48662 165 ft 15 kts 336°
2026-05-06 10:41 50.89403 4.48643 163 ft 4 kts 19°
2026-05-06 10:41 50.89438 4.48690 161 ft 0 kts 49°